Weather History for Campo, CA

Change the Weather History Date:

Saturday, March 23, 2013

  Actual Average Record
Temperature  
Mean Temperature 52 °F 52 °F  
Max Temperature 71 °F 68 °F 85 °F (1990)
Min Temperature 32 °F 36 °F 24 °F (1973)
Degree Days  
Heating Degree Days 13 13  
Month to date heating degree days 292 315  
Since 1 July heating degree days 2436 2366  
Cooling Degree Days 0 0  
Month to date cooling degree days 0 0  
Year to date cooling degree days 0 0  
Growing Degree Days 2 (Base 50)    
Moisture  
Dew Point 30 °F    
Average Humidity 54    
Maximum Humidity 93    
Minimum Humidity 14    
Precipitation  
Precipitation 0.00 in 0.07 in 1.19 in (1954)
Month to date precipitation 1.43 2.19  
Year to date precipitation 4.44 8.40  
Since 1 July precipitation 8.91 13.98  
Snow  
Snow 0.00 in - - ()
Month to date snowfall 0.0  
Year to date snowfall 0.0  
Since 1 July snowfall 0.0  
Snow Depth 0.00 in    
Sea Level Pressure  
Sea Level Pressure 29.89 in    
Wind  
Wind Speed 10 mph (ENE)    
Max Wind Speed 28 mph    
Max Gust Speed 33 mph    
T = Trace of Precipitation, MM = Missing Value Source: NWS Daily Summary

Daily Weather History Graph

Daily Weather History Graph

Search for Another Location

Airport:

Trip Planner

Search our weather history database for the weather conditions in past years. The results will help you decide how hot, cold, wet, or windy it might be!

Date:

Astronomy

Mar. 23, 2013 Rise Set
Actual Time 6:45 AM PDT 6:59 PM PDT
Civil Twilight 6:20 AM PDT 7:24 PM PDT
Nautical Twilight 5:51 AM PDT 7:53 PM PDT
Astronomical Twilight 5:22 AM PDT 8:22 PM PDT
Moon 3:40 PM PDT (3/23) 4:13 AM PDT (3/23)
Length of Visible Light 13h 03m
Length of Day
12h 14m
Waxing Gibbous, 86% of the Moon is Illuminated
Mar 23
Waxing Gibbous
Mar 27
Full
Apr 2
Last Quarter
Apr 10
New
Apr 18
First Quarter

Hourly Weather History & Observations

Time (PDT) Temp. Windchill Dew Point Humidity Pressure Visibility Wind Dir Wind Speed Gust Speed Precip Events Conditions
12:52 AM 46.9 °F - 45.0 °F 93% 29.85 in - ENE 3.5 mph - N/A   Unknown
1:52 AM 44.1 °F 42.5 °F 42.1 °F 93% 29.84 in - NNE 3.5 mph - N/A   Unknown
2:52 AM 39.9 °F - 37.9 °F 93% 29.84 in - Calm Calm - N/A   Unknown
3:52 AM 35.1 °F 30.1 °F 32.0 °F 89% 29.83 in - ENE 5.8 mph - N/A   Unknown
4:52 AM 35.1 °F 30.1 °F 32.0 °F 89% 29.84 in - NE 5.8 mph - N/A   Unknown
5:52 AM 34.0 °F 31.0 °F 30.0 °F 85% 29.87 in - North 3.5 mph - N/A   Unknown
6:52 AM 34.0 °F 28.0 °F 30.9 °F 89% 29.90 in - NE 6.9 mph - N/A   Unknown
7:52 AM 39.0 °F 36.8 °F 34.0 °F 82% 29.91 in - NE 3.5 mph - N/A   Unknown
8:52 AM 48.9 °F - 39.0 °F 69% 29.90 in - Calm Calm - N/A   Unknown
9:52 AM 66.0 °F - 19.0 °F 17% 29.88 in - ENE 21.9 mph - N/A   Unknown
9:56 AM 66.2 °F - 17.6 °F 15% 29.95 in - East 21.9 mph - N/A   Unknown
10:52 AM 68.0 °F - 17.1 °F 14% 29.90 in - ENE 19.6 mph 27.6 mph N/A   Unknown
11:52 AM 68.0 °F - 21.9 °F 17% 29.90 in - East 25.3 mph 31.1 mph N/A   Unknown
12:52 PM 69.1 °F - 23.0 °F 18% 29.90 in - ENE 20.7 mph 28.8 mph N/A   Unknown
1:52 PM 71.1 °F - 27.0 °F 19% 29.89 in - NE 16.1 mph 23.0 mph N/A   Unknown
2:52 PM 70.0 °F - 21.0 °F 16% 29.89 in - ENE 15.0 mph 23.0 mph N/A   Unknown
3:52 PM 71.1 °F - 23.0 °F 16% 29.88 in - ENE 11.5 mph - N/A   Unknown
4:52 PM 70.0 °F - 21.9 °F 16% 29.87 in - East 11.5 mph - N/A   Unknown
5:52 PM 68.0 °F - 21.9 °F 17% 29.88 in - East 6.9 mph - N/A   Unknown
6:52 PM 59.0 °F - 48.0 °F 67% 29.91 in - SSW 4.6 mph - N/A   Unknown
7:52 PM 55.0 °F - 45.0 °F 69% 29.93 in - Calm Calm - N/A   Unknown
8:52 PM 46.9 °F - 30.0 °F 52% 29.95 in - NE 4.6 mph - N/A   Unknown
9:52 PM 46.0 °F 43.9 °F 26.1 °F 46% 29.95 in - NE 4.6 mph - N/A   Unknown
10:52 PM 42.1 °F 39.2 °F 28.9 °F 60% 29.95 in - NE 4.6 mph - N/A   Unknown
11:52 PM 39.0 °F 34.0 °F 26.1 °F 60% 29.96 in - ENE 6.9 mph - N/A   Unknown